Tracking 19827 objects as of 21-Aug-2019
HD Live streaming from Space Station
objects crossing your sky now

USA 82

Track USA 82 now!
USA 82 is classified as:


NORAD ID: 22009
Int'l Code: 1992-037A
Perigee: 36,161.1 km
Apogee: 36,255.5 km
Inclination: 12.5 °
Period: 1,457.3 minutes
Semi major axis: 42579 km
RCS: Unknown
Launch date: July 2, 1992
Source: United States (US)
Launch site: AIR FORCE EASTERN TEST RANGE (AFETR)

Super High Frequency (SHF) for U.S. government and military; sophisticated survivability enhancement; worldwide, longhaul coverage; X-band.
aabbcc
Your satellite tracking list
Your tracking list is empty




NASA's NSSDC Master Catalog

Two Line Element Set (TLE):
1 22009U 92037A   19231.85941675 -.00000139  00000-0  00000+0 0  9998
2 22009  12.5449  27.3031 0011090 336.8367  23.1891  0.98810967   498
Source of the keplerian elements: McCants